Location: Castelnau
(43.6639°N, 0.8431°W)
Time: 16:46:03
(UTC+00:00)

Cosmos 2278 Rocket - Pass Details

Date: 13 January 2026
Orbit: 839 x 846 km, 71.0° (Epoch: 10 February)

Event Time Altitude Azimuth Distance (km) Brightness Sun altitude
Rises 05:23:38 0° 180° (S) 3,376 5.4 -23.2°
Reaches altitude 10° 05:26:12 10° 172° (S) 2,447 4.8 -22.7°
Maximum altitude 05:31:20 38° 106° (ESE) 1,254 3.6 -21.8°
Drops below altitude 10° 05:36:31 10° 40° (NE) 2,466 5.0 -20.9°
Sets 05:39:07 0° 32° (NNE) 3,406 5.6 -20.4°
